Location: Cheb
(50.0670°N, 12.3670°E)
Time: 10:39:37
(UTC+02:00)

ISS - Pass Details

Date: 26 March 2019
Orbit: 408 x 410 km, 51.6° (Epoch: 21 April)

Event Time Altitude Azimuth Distance (km) Brightness Sun altitude
Rises 19:22:28 0° 242° (WSW) 2,330 0.8 -8.7°
Reaches altitude 10° 19:24:33 10° 240° (WSW) 1,470 -0.3 -9.1°
Maximum altitude 19:27:49 65° 158° (SSE) 452 -3.8 -9.6°
Enters shadow 19:30:49 12° 76° (ENE) 1,356 -1.7 -10.0°
